User: anonymous   Login
Location: Round Knob
(37.2473°N, 88.7376°W)
Time: 11:51:39
(UTC+00:00)
Language:

H-2A R/B - Orbit

View from above orbital plane
View from above orbital plane
View from above satellite
View from above satellite

Ground track
Ground track

The orbit data is extracted from the following two-line orbital elements,

1 38341U 12025E   21023.04189219  .00000197  00000-0  30651-4 0  9997
2 38341  98.5182 198.6204 0054397 246.0680 113.4829 14.84152339470018
Epoch (UTC): 23 January 2021 01:00:19
Eccentricity: 0.0054397
inclination: 98.5182°
perigee height: 578 km
apogee height: 654 km
right ascension of ascending node: 198.6204°
argument of perigee: 246.0680°
revolutions per day: 14.84152339
mean anomaly at epoch: 113.4829°
orbit number at epoch: 47001

The dashed part of the orbit path shows where the satellite is in the earth's shadow,  

DLR